Volver al catálogo

MINOTAUR 4 R/B

ActivoLEO
NORAD 63598·ROCKET BODY·🇺🇸 United States

Lanzado Apr 16, 2025 desde Vandenberg Space Force Base

Loading…

Próximos Pases (próximas 24 horas)

TLE

EnvejeciendoSource: Mike McCants

Época: Sep 10, 2026, 03:48 UTC

1 63598U 25077C   26253.15844306 0.00000000  00000-0  00000-0 0    04
2 63598  63.3953 358.2237 0032791 352.7982   7.2018 13.39148365    01

Sigue MINOTAUR 4 R/B en tiempo real con AllMySat

Download on the App Store